"Pseudo-MPEC" for A11c3qO

Created 2024 Oct 3 1:22:01 UT using Find_Orb

Click here for an explanation of pseudo-MPECs

 
 Astrometry: 
     A11c3qO* C2024 10 01.32420823 17 26.887-50 59 54.82   ~A1Bq 18.49cVNEOCPW68
     A11c3qO  C2024 10 01.33169823 17 32.892-50 57 50.98   ~A1Bq 18.11cVNEOCPW68
     A11c3qO  C2024 10 01.33502323 17 35.616-50 56 55.21   ~A1Bq 18.86cVNEOCPW68
     A11c3qO  C2024 10 01.35084523 17 48.451-50 52 35.65   ~A1Bq 18.14cVNEOCPW68
     A11c3qO  C2024 10 01.35290323 17 50.093-50 52 01.38   ~A1Bq 18.74cVNEOCPW68
     A11c3qO  C2024 10 01.35393023 17 50.873-50 51 45.25   ~A1Bq 18.11cVNEOCPW68
     A11c3qO  C2024 10 01.36030123 17 56.016-50 49 59.45   ~A1Bq 18.37cVNEOCPW68
     A11c3qO  C2024 10 01.37602823 18 08.954-50 45 38.92   ~A1Bqx18.25cVNEOCPW68
     A11c3qO KB2024 10 01.91465023 25 05.410-48 38 38.69   ~A29b 19.4 VZNEOCPY05
     A11c3qO KB2024 10 01.91735623 25 07.016-48 38 05.42   ~A29b 19.5 VZNEOCPY05
     A11c3qO KB2024 10 02.03908023 26 10.955-48 12 38.57   ~A29M 19.0 VZNEOCPY05
     A11c3qO KB2024 10 02.04452823 26 13.650-48 11 30.66   ~A29M 18.9 VZNEOCPY05
     A11c3qO KB2024 10 02.04984323 26 16.248-48 10 23.73   ~A29M 18.7 VZNEOCPY05

Station data:
(W68) ATLAS Chile, Rio Hurtado  (S30.471010 W70.764980)  Chile.  Observers L.
   Denneau, R. Siverd, J. Tonry, H. Weiland. Measurers L. Denneau, N.
   Erasmus, A. Fitzsimmons, A. Lawrence, J. Robinson, R. Siverd, J. Tonry, H.
   Weiland. 0.5-m reflector + CCD.
(Y05) SONEAR Wykrota-CEAMIG, Serra da Piedade  (S19.824251 W43.690000)
   Brazil.  Observer C. Jacques. 0.45-m f/2.9 reflector + CMO.

Orbital elements:  A11c3qO
   Perihelion 2024 Jul 24.39133 +/- 0.189 TT =  9:23:30 (JD 2460515.89133)
Epoch 2024 Oct  2.0 TT = JDT 2460585.5   Earth MOID: 0.0160   Ve: 0.0240
M  65.81200923 +/- 0.31             (J2000 ecliptic)             AutoNEOCP
n   0.94545704 +/- 0.002            Peri.   71.65560 +/- 0.10
a   1.02811457 +/- 0.00145          Node   179.97737 +/- 0.043
e   0.4323117 +/- 0.00257           Incl.   13.96915 +/- 0.13
P   1.042/380.761d         H 23.20  G  0.15   U  8.6
q 0.58364852 +/- 0.00191    Q 1.47258061 +/- 0.00463
12 of 13 observations 2024 Oct. 1-2 (17.4 hr); mean residual 0".35
Residuals in arcseconds: 
241001 W68  .06-  .33-    241001 W68  .18-  .58-    241002 Y05  .08+  .35+    
241001 W68  .30-  .25-    241001 W68  .42-  .69+    241002 Y05  .08+  .20-    
241001 W68  .10+  .65+    241001 W68( .91+  4.0+)   241002 Y05  .15-  .08-    
241001 W68  .55+  .31-    241001 Y05  .39-  .29+    
241001 W68  .31+  .15+    241001 Y05  .36+  .40-    

Ephemerides (geocentric):
Date (UTC) HH   RA             Dec           delta  r     elong  mag " sig PA
---- --------  ------------   ------------  ------ ------ -----  --- --------
2024 10 03 01  23 34 13.322   -45 07 14.06  .06114 1.0402 129.0 19.0 6.59  10
2024 10 03 02  23 34 29.649   -45 00 37.38  .06150 1.0405 129.1 19.0 6.93  10
2024 10 03 03  23 34 45.731   -44 54 05.00  .06185 1.0408 129.2 19.1 7.27  10
2024 10 03 04  23 35 01.574   -44 47 36.86  .06221 1.0411 129.3 19.1 7.61  10
2024 10 03 05  23 35 17.181   -44 41 12.88  .06257 1.0414 129.4 19.1 7.96  11
2024 10 03 06  23 35 32.559   -44 34 53.01  .06293 1.0417 129.4 19.1 8.31  11
2024 10 03 07  23 35 47.713   -44 28 37.17  .06329 1.0420 129.5 19.1 8.66  11
2024 10 03 08  23 36 02.648   -44 22 25.31  .06365 1.0423 129.6 19.1 9.02  11
2024 10 03 09  23 36 17.368   -44 16 17.36  .06401 1.0426 129.7 19.1 9.38  12
2024 10 03 10  23 36 31.878   -44 10 13.26  .06437 1.0429 129.8 19.1 9.74  12
2024 10 03 11  23 36 46.184   -44 04 12.95  .06473 1.0432 129.9 19.1 10.1  12
2024 10 03 12  23 37 00.288   -43 58 16.38  .06509 1.0435 130.0 19.1 10.5  12
2024 10 03 13  23 37 14.196   -43 52 23.49  .06545 1.0438 130.0 19.2 10.8  12
2024 10 03 14  23 37 27.911   -43 46 34.21  .06581 1.0441 130.1 19.2 11.2  12
2024 10 03 15  23 37 41.438   -43 40 48.50  .06617 1.0444 130.2 19.2 11.6  12
2024 10 03 16  23 37 54.780   -43 35 06.30  .06653 1.0447 130.3 19.2 12.0  13
2024 10 03 17  23 38 07.942   -43 29 27.56  .06689 1.0450 130.4 19.2 12.3  13
2024 10 03 18  23 38 20.927   -43 23 52.22  .06725 1.0453 130.4 19.2 12.7  13
2024 10 03 19  23 38 33.739   -43 18 20.24  .06762 1.0456 130.5 19.2 13.1  13
2024 10 03 20  23 38 46.381   -43 12 51.56  .06798 1.0459 130.6 19.2 13.5  13
2024 10 03 21  23 38 58.856   -43 07 26.13  .06834 1.0462 130.7 19.2 13.9  13
2024 10 03 22  23 39 11.169   -43 02 03.92  .06870 1.0465 130.7 19.2 14.3  13
2024 10 03 23  23 39 23.322   -42 56 44.86  .06907 1.0468 130.8 19.3 14.6  13
2024 10 04 00  23 39 35.319   -42 51 28.91  .06943 1.0471 130.9 19.3 15.0  13
2024 10 04 01  23 39 47.162   -42 46 16.03  .06979 1.0474 130.9 19.3 15.4  13
2024 10 04 02  23 39 58.855   -42 41 06.17  .07016 1.0477 131.0 19.3 15.8  14
2024 10 04 03  23 40 10.400   -42 35 59.29  .07052 1.0480 131.1 19.3 16.2  14
2024 10 04 04  23 40 21.800   -42 30 55.34  .07088 1.0483 131.1 19.3 16.6  14
2024 10 04 05  23 40 33.059   -42 25 54.28  .07125 1.0486 131.2 19.3 17.0  14
2024 10 04 06  23 40 44.178   -42 20 56.07  .07161 1.0489 131.3 19.3 17.4  14
2024 10 04 07  23 40 55.161   -42 16 00.67  .07197 1.0492 131.3 19.3 17.8  14
2024 10 04 08  23 41 06.011   -42 11 08.04  .07234 1.0495 131.4 19.3 18.1  14
2024 10 04 09  23 41 16.728   -42 06 18.14  .07270 1.0498 131.5 19.3 18.5  14
2024 10 04 10  23 41 27.317   -42 01 30.93  .07307 1.0501 131.5 19.4 18.9  14
2024 10 04 11  23 41 37.780   -41 56 46.37  .07343 1.0504 131.6 19.4 19.3  14
2024 10 04 12  23 41 48.118   -41 52 04.42  .07380 1.0507 131.6 19.4 19.7  14
2024 10 04 13  23 41 58.334   -41 47 25.05  .07416 1.0510 131.7 19.4 20.1  14
2024 10 04 14  23 42 08.430   -41 42 48.23  .07453 1.0513 131.8 19.4 20.5  14
2024 10 04 15  23 42 18.409   -41 38 13.91  .07490 1.0516 131.8 19.4 20.9  14
2024 10 04 16  23 42 28.273   -41 33 42.06  .07526 1.0519 131.9 19.4 21.3  14
2024 10 04 17  23 42 38.023   -41 29 12.64  .07563 1.0522 131.9 19.4 21.7  14
2024 10 04 18  23 42 47.663   -41 24 45.63  .07599 1.0525 132.0 19.4 22.1  14
2024 10 04 19  23 42 57.192   -41 20 20.99  .07636 1.0528 132.0 19.4 22.4  14
2024 10 04 20  23 43 06.615   -41 15 58.69  .07673 1.0531 132.1 19.5 22.8  15
2024 10 04 21  23 43 15.932   -41 11 38.69  .07709 1.0534 132.1 19.5 23.2  15
2024 10 04 22  23 43 25.145   -41 07 20.96  .07746 1.0537 132.2 19.5 23.6  15
2024 10 04 23  23 43 34.256   -41 03 05.48  .07783 1.0540 132.2 19.5 24.0  15
2024 10 05 00  23 43 43.268   -40 58 52.21  .07819 1.0543 132.3 19.5 24.4  15